Time,TemperatureF,DewpointF,PressureIn,WindDirection,WindDirectionDegrees,WindSpeedMPH,WindSpeedGustMPH,Humidity,HourlyPrecipIn,Conditions,Clouds,dailyrainin,SoftwareType,DateUTC
2013-08-30 00:12:00,74.9,66.0,29.94,SSW,193,0.0,0.0,74,0.00,,,0.00,weatherlink.com 1.10,2013-08-30 05:12:00,
2013-08-30 00:27:00,74.4,66.0,29.94,SSW,193,0.0,0.0,74,0.00,,,0.00,weatherlink.com 1.10,2013-08-30 05:27:00,
2013-08-30 00:42:00,74.0,65.0,29.94,SSW,193,0.0,0.0,74,0.00,,,0.00,weatherlink.com 1.10,2013-08-30 05:42:00,
2013-08-30 00:57:00,73.7,65.0,29.94,SSW,193,0.0,0.0,74,0.00,,,0.00,weatherlink.com 1.10,2013-08-30 05:57:00,
2013-08-30 01:12:00,72.9,66.0,29.94,SSW,193,0.0,0.0,78,0.00,,,0.00,weatherlink.com 1.10,2013-08-30 06:12:00,
2013-08-30 01:27:00,72.1,65.0,29.94,SSW,193,0.0,0.0,78,0.00,,,0.00,weatherlink.com 1.10,2013-08-30 06:27:00,
2013-08-30 01:42:00,72.0,65.0,29.93,South,191,0.0,0.0,78,0.00,,,0.00,weatherlink.com 1.10,2013-08-30 06:42:00,
2013-08-30 01:57:00,71.8,65.0,29.94,South,191,0.0,0.0,79,0.00,,,0.00,weatherlink.com 1.10,2013-08-30 06:57:00,
2013-08-30 02:12:00,71.5,65.0,29.94,SSW,192,0.0,0.0,79,0.00,,,0.00,weatherlink.com 1.10,2013-08-30 07:12:00,
2013-08-30 02:27:00,71.2,65.0,29.93,South,191,0.0,0.0,81,0.00,,,0.00,weatherlink.com 1.10,2013-08-30 07:27:00,
2013-08-30 02:42:00,71.0,65.0,29.93,South,191,0.0,0.0,82,0.00,,,0.00,weatherlink.com 1.10,2013-08-30 07:42:00,
2013-08-30 02:57:00,70.7,65.0,29.93,South,191,0.0,0.0,82,0.00,,,0.00,weatherlink.com 1.10,2013-08-30 07:57:00,
2013-08-30 03:12:00,70.4,65.0,29.93,South,191,0.0,0.0,83,0.00,,,0.00,weatherlink.com 1.10,2013-08-30 08:12:00,
2013-08-30 03:27:00,70.0,65.0,29.93,South,191,0.0,0.0,84,0.00,,,0.00,weatherlink.com 1.10,2013-08-30 08:27:00,
2013-08-30 03:42:00,70.0,65.0,29.93,South,191,0.0,0.0,84,0.00,,,0.00,weatherlink.com 1.10,2013-08-30 08:42:00,
2013-08-30 03:57:00,69.9,65.0,29.93,South,191,0.0,0.0,85,0.00,,,0.00,weatherlink.com 1.10,2013-08-30 08:57:00,
2013-08-30 04:12:00,69.8,65.0,29.93,SSW,193,0.0,0.0,85,0.00,,,0.00,weatherlink.com 1.10,2013-08-30 09:12:00,
2013-08-30 04:27:00,69.6,65.0,29.94,SSW,192,0.0,0.0,85,0.00,,,0.00,weatherlink.com 1.10,2013-08-30 09:27:00,
2013-08-30 04:42:00,69.4,65.0,29.94,South,191,0.0,0.0,87,0.00,,,0.00,weatherlink.com 1.10,2013-08-30 09:42:00,
2013-08-30 04:57:00,69.9,66.0,29.94,SSW,193,0.0,0.0,86,0.00,,,0.00,weatherlink.com 1.10,2013-08-30 09:57:00,
2013-08-30 05:12:00,70.3,66.0,29.94,SSW,192,0.0,0.0,85,0.00,,,0.00,weatherlink.com 1.10,2013-08-30 10:12:00,
2013-08-30 05:27:00,68.9,66.0,29.94,SE,134,0.0,1.0,89,0.00,,,0.00,weatherlink.com 1.10,2013-08-30 10:27:00,
2013-08-30 05:42:00,-999.0,-99.9,29.94,North,-999,-999.0,-999.0,-999,0.00,,,0.00,weatherlink.com 1.10,2013-08-30 10:42:00,
2013-08-30 05:57:00,-999.0,-99.9,29.95,North,-999,-999.0,-999.0,-999,0.00,,,0.00,weatherlink.com 1.10,2013-08-30 10:57:00,
2013-08-30 06:12:00,-999.0,-99.9,29.95,North,-999,-999.0,-999.0,-999,0.00,,,0.00,weatherlink.com 1.10,2013-08-30 11:12:00,
2013-08-30 06:27:00,-999.0,-99.9,29.95,North,-999,-999.0,-999.0,-999,0.00,,,0.00,weatherlink.com 1.10,2013-08-30 11:27:00,
2013-08-30 06:42:00,-999.0,-99.9,29.96,North,-999,-999.0,-999.0,-999,0.00,,,0.00,weatherlink.com 1.10,2013-08-30 11:42:00,
2013-08-30 06:57:00,-999.0,-99.9,29.96,North,-999,-999.0,-999.0,-999,0.00,,,0.00,weatherlink.com 1.10,2013-08-30 11:57:00,
2013-08-30 07:12:00,-999.0,-99.9,29.96,North,-999,-999.0,-999.0,-999,0.00,,,0.00,weatherlink.com 1.10,2013-08-30 12:12:00,
2013-08-30 07:27:00,-999.0,-99.9,29.97,North,-999,-999.0,-999.0,-999,0.00,,,0.00,weatherlink.com 1.10,2013-08-30 12:27:00,
2013-08-30 07:42:00,68.0,65.0,29.98,SE,134,0.0,0.0,91,0.00,,,0.00,weatherlink.com 1.10,2013-08-30 12:42:00,
2013-08-30 07:57:00,70.1,67.0,29.97,SSE,150,0.0,0.0,89,0.00,,,0.00,weatherlink.com 1.10,2013-08-30 12:57:00,
2013-08-30 08:12:00,73.8,68.0,29.98,SSE,159,0.0,1.0,83,0.00,,,0.00,weatherlink.com 1.10,2013-08-30 13:12:00,
2013-08-30 08:27:00,78.4,69.0,29.97,ESE,104,0.0,2.0,72,0.00,,,0.00,weatherlink.com 1.10,2013-08-30 13:27:00,
2013-08-30 08:42:00,81.5,70.0,29.97,SSE,152,0.0,1.0,67,0.00,,,0.00,weatherlink.com 1.10,2013-08-30 13:42:00,
2013-08-30 08:57:00,83.4,68.0,29.98,SE,134,1.0,4.0,61,0.00,,,0.00,weatherlink.com 1.10,2013-08-30 13:57:00,
2013-08-30 09:12:00,86.1,69.0,29.98,SE,128,1.0,3.0,56,0.00,,,0.00,weatherlink.com 1.10,2013-08-30 14:12:00,
2013-08-30 09:28:00,87.5,68.0,29.98,SW,218,4.0,6.0,53,0.00,,,0.00,weatherlink.com 1.10,2013-08-30 14:28:00,
2013-08-30 09:43:00,88.7,68.0,29.98,WSW,242,2.0,5.0,51,0.00,,,0.00,weatherlink.com 1.10,2013-08-30 14:43:00,
2013-08-30 09:58:00,89.6,68.0,29.98,SW,217,2.0,5.0,49,0.00,,,0.00,weatherlink.com 1.10,2013-08-30 14:58:00,
2013-08-30 10:13:00,91.6,68.0,29.98,SW,215,5.0,6.0,46,0.00,,,0.00,weatherlink.com 1.10,2013-08-30 15:13:00,
2013-08-30 10:28:00,92.8,68.0,29.98,SSE,150,3.0,7.0,44,0.00,,,0.00,weatherlink.com 1.10,2013-08-30 15:28:00,
2013-08-30 10:43:00,94.5,67.0,29.97,SW,233,4.0,7.0,41,0.00,,,0.00,weatherlink.com 1.10,2013-08-30 15:43:00,
2013-08-30 10:58:00,95.8,66.0,29.97,SSW,211,1.0,5.0,38,0.00,,,0.00,weatherlink.com 1.10,2013-08-30 15:58:00,
2013-08-30 11:13:00,97.1,66.0,29.96,WNW,301,0.0,6.0,36,0.00,,,0.00,weatherlink.com 1.10,2013-08-30 16:13:00,
2013-08-30 11:28:00,98.1,66.0,29.96,WNW,291,1.0,7.0,35,0.00,,,0.00,weatherlink.com 1.10,2013-08-30 16:28:00,
2013-08-30 11:43:00,98.4,66.0,29.95,West,269,0.0,7.0,35,0.00,,,0.00,weatherlink.com 1.10,2013-08-30 16:43:00,
2013-08-30 11:58:00,99.0,66.0,29.95,South,179,4.0,7.0,34,0.00,,,0.00,weatherlink.com 1.10,2013-08-30 16:58:00,
2013-08-30 12:13:00,99.7,67.0,29.95,WNW,301,2.0,6.0,34,0.00,,,0.00,weatherlink.com 1.10,2013-08-30 17:13:00,
2013-08-30 12:28:00,100.2,66.0,29.95,SSE,167,3.0,6.0,33,0.00,,,0.00,weatherlink.com 1.10,2013-08-30 17:28:00,
2013-08-30 12:43:00,100.8,65.0,29.94,WNW,288,2.0,8.0,31,0.00,,,0.00,weatherlink.com 1.10,2013-08-30 17:43:00,
2013-08-30 12:58:00,100.9,65.0,29.93,SSE,150,1.0,7.0,31,0.00,,,0.00,weatherlink.com 1.10,2013-08-30 17:58:00,
2013-08-30 13:13:00,101.2,65.0,29.93,West,271,3.0,6.0,30,0.00,,,0.00,weatherlink.com 1.10,2013-08-30 18:13:00,
2013-08-30 13:28:00,101.5,65.0,29.92,SSE,155,3.0,8.0,30,0.00,,,0.00,weatherlink.com 1.10,2013-08-30 18:28:00,
2013-08-30 13:43:00,102.5,65.0,29.92,SSE,159,2.0,7.0,29,0.00,,,0.00,weatherlink.com 1.10,2013-08-30 18:43:00,
2013-08-30 13:58:00,102.5,65.0,29.91,SSW,200,6.0,10.0,29,0.00,,,0.00,weatherlink.com 1.10,2013-08-30 18:58:00,
2013-08-30 14:13:00,103.2,64.0,29.90,SSE,148,3.0,9.0,28,0.00,,,0.00,weatherlink.com 1.10,2013-08-30 19:13:00,
2013-08-30 14:28:00,103.1,64.0,29.89,SSE,165,3.0,6.0,28,0.00,,,0.00,weatherlink.com 1.10,2013-08-30 19:28:00,
2013-08-30 14:43:00,101.7,64.0,29.89,SSW,205,5.0,9.0,29,0.00,,,0.00,weatherlink.com 1.10,2013-08-30 19:43:00,
2013-08-30 14:58:00,102.2,65.0,29.88,SW,221,0.0,4.0,30,0.00,,,0.00,weatherlink.com 1.10,2013-08-30 19:58:00,
2013-08-30 15:13:00,100.9,64.0,29.88,SW,214,3.0,8.0,30,0.00,,,0.00,weatherlink.com 1.10,2013-08-30 20:13:00,
2013-08-30 15:28:00,100.9,63.0,29.87,SSE,147,3.0,7.0,29,0.00,,,0.00,weatherlink.com 1.10,2013-08-30 20:28:00,
2013-08-30 15:43:00,102.1,63.0,29.86,WSW,243,1.0,9.0,28,0.00,,,0.00,weatherlink.com 1.10,2013-08-30 20:43:00,
2013-08-30 15:58:00,103.6,64.0,29.86,SSW,200,5.0,8.0,27,0.00,,,0.00,weatherlink.com 1.10,2013-08-30 20:58:00,
2013-08-30 16:13:00,103.9,63.0,29.85,WNW,293,1.0,7.0,26,0.00,,,0.00,weatherlink.com 1.10,2013-08-30 21:13:00,
2013-08-30 16:28:00,102.4,63.0,29.85,SW,231,0.0,6.0,27,0.00,,,0.00,weatherlink.com 1.10,2013-08-30 21:28:00,
2013-08-30 16:43:00,103.1,63.0,29.84,WSW,250,0.0,4.0,27,0.00,,,0.00,weatherlink.com 1.10,2013-08-30 21:43:00,
2013-08-30 16:58:00,104.6,63.0,29.84,South,170,4.0,6.0,26,0.00,,,0.00,weatherlink.com 1.10,2013-08-30 21:58:00,
2013-08-30 17:13:00,103.2,64.0,29.84,SE,139,1.0,5.0,28,0.00,,,0.00,weatherlink.com 1.10,2013-08-30 22:13:00,
2013-08-30 17:28:00,101.6,65.0,29.83,SE,142,0.0,3.0,30,0.00,,,0.00,weatherlink.com 1.10,2013-08-30 22:28:00,
2013-08-30 17:43:00,102.9,63.0,29.83,SE,134,0.0,4.0,27,0.00,,,0.00,weatherlink.com 1.10,2013-08-30 22:43:00,
2013-08-30 17:58:00,102.6,64.0,29.83,SSE,150,2.0,6.0,28,0.00,,,0.00,weatherlink.com 1.10,2013-08-30 22:58:00,
2013-08-30 18:13:00,102.0,65.0,29.83,WSW,239,2.0,3.0,30,0.00,,,0.00,weatherlink.com 1.10,2013-08-30 23:13:00,
2013-08-30 18:28:00,100.0,64.0,29.83,SE,134,0.0,3.0,31,0.00,,,0.00,weatherlink.com 1.10,2013-08-30 23:28:00,
2013-08-30 18:43:00,98.1,66.0,29.83,SSE,152,0.0,1.0,35,0.00,,,0.00,weatherlink.com 1.10,2013-08-30 23:43:00,
2013-08-30 18:58:00,97.0,66.0,29.82,SSE,147,0.0,1.0,36,0.00,,,0.00,weatherlink.com 1.10,2013-08-30 23:58:00,
2013-08-30 19:13:00,95.5,65.0,29.83,SE,143,0.0,2.0,37,0.00,,,0.00,weatherlink.com 1.10,2013-08-31 00:13:00,
2013-08-30 19:28:00,94.7,65.0,29.82,SE,144,0.0,2.0,38,0.00,,,0.00,weatherlink.com 1.10,2013-08-31 00:28:00,
2013-08-30 19:43:00,94.0,65.0,29.82,SE,139,1.0,1.0,39,0.00,,,0.00,weatherlink.com 1.10,2013-08-31 00:43:00,
2013-08-30 19:58:00,92.3,65.0,29.83,South,186,0.0,2.0,40,0.00,,,0.00,weatherlink.com 1.10,2013-08-31 00:58:00,
2013-08-30 20:13:00,91.3,64.0,29.83,SW,236,1.0,3.0,41,0.00,,,0.00,weatherlink.com 1.10,2013-08-31 01:13:00,
2013-08-30 20:28:00,91.1,65.0,29.83,SE,134,0.0,3.0,42,0.00,,,0.00,weatherlink.com 1.10,2013-08-31 01:28:00,
2013-08-30 20:44:00,90.4,65.0,29.84,SE,144,0.0,0.0,43,0.00,,,0.00,weatherlink.com 1.10,2013-08-31 01:44:00,
2013-08-30 20:59:00,88.3,66.0,29.84,SE,143,0.0,0.0,47,0.00,,,0.00,weatherlink.com 1.10,2013-08-31 01:59:00,
2013-08-30 21:14:00,86.1,66.0,29.84,SE,143,0.0,0.0,51,0.00,,,0.00,weatherlink.com 1.10,2013-08-31 02:14:00,
2013-08-30 21:29:00,84.2,66.0,29.84,SE,144,0.0,0.0,55,0.00,,,0.00,weatherlink.com 1.10,2013-08-31 02:29:00,
2013-08-30 21:44:00,83.4,66.0,29.84,SE,139,0.0,1.0,55,0.00,,,0.00,weatherlink.com 1.10,2013-08-31 02:44:00,
2013-08-30 21:59:00,84.0,66.0,29.84,SSE,153,0.0,1.0,54,0.00,,,0.00,weatherlink.com 1.10,2013-08-31 02:59:00,
2013-08-30 22:14:00,84.3,65.0,29.84,SSE,152,0.0,0.0,53,0.00,,,0.00,weatherlink.com 1.10,2013-08-31 03:14:00,
2013-08-30 22:29:00,82.9,65.0,29.84,South,170,0.0,0.0,55,0.00,,,0.00,weatherlink.com 1.10,2013-08-31 03:29:00,
2013-08-30 22:44:00,81.8,65.0,29.84,South,170,0.0,0.0,58,0.00,,,0.00,weatherlink.com 1.10,2013-08-31 03:44:00,
2013-08-30 22:59:00,80.5,65.0,29.84,South,170,0.0,0.0,60,0.00,,,0.00,weatherlink.com 1.10,2013-08-31 03:59:00,
2013-08-30 23:14:00,80.8,65.0,29.84,SSE,148,0.0,1.0,58,0.00,,,0.00,weatherlink.com 1.10,2013-08-31 04:14:00,
2013-08-30 23:29:00,82.5,64.0,29.83,SE,144,1.0,2.0,54,0.00,,,0.00,weatherlink.com 1.10,2013-08-31 04:29:00,
2013-08-30 23:44:00,84.1,64.0,29.83,SE,138,0.0,3.0,51,0.00,,,0.00,weatherlink.com 1.10,2013-08-31 04:44:00,
2013-08-30 23:59:00,84.4,64.0,29.83,SSE,150,2.0,3.0,50,0.00,,,0.00,weatherlink.com 1.10,2013-08-31 04:59:00,